Vorticity
14 15 14 13 12 13 13 12 12 10 8 6 6 8 10 9 9 9 8 9 9 9 9 8 8 9 9 9 10 11 16 23 28 24 14 7 6 5 4 4 5 7 9 12 12 9 6 4 2 4 7 8 11 11 8 9 12 11 5 7 15 14 7 7 8 8 11 10 6 7 8 7 6 5 5 7 6 7 9 8 5 5 7 8 8
14 15 15 14 13 13 13 12 10 7 6 6 7 9 10 9 8 8 8 10 11 11 11 9 8 7 7 7 8 8 8 12 21 31 30 19 9 6 6 5 5 6 8 11 13 11 9 6 3 4 7 7 7 8 9 10 11 12 9 6 11 16 12 6 5 7 10 12 4 -4 -0 8 8 1 0 5 7 6 6 7 8 9 9 8 8
14 15 14 13 12 12 12 10 7 7 7 7 8 9 9 9 8 8 8 9 10 11 12 13 12 11 9 6 5 5 6 5 7 19 33 34 21 10 7 6 5 5 6 9 12 12 11 8 6 5 4 5 6 6 7 10 13 13 10 8 9 14 18 14 8 10 13 13 8 -0 -1 5 8 7 7 6 6 6 3 4 11 14 11 8 8
12 14 14 13 12 10 10 8 7 8 8 8 9 9 9 8 7 7 7 7 8 9 11 13 15 16 16 13 7 4 5 6 4 5 20 36 35 21 10 7 7 6 6 7 9 11 12 11 10 7 5 5 7 8 8 9 14 14 10 9 8 9 18 19 9 7 12 12 10 9 6 4 5 9 13 9 6 8 6 3 9 12 8 6 7
11 13 13 13 12 10 9 9 9 9 9 9 9 9 8 7 6 6 6 6 8 10 13 15 17 17 20 19 14 8 6 8 8 4 8 26 38 32 18 8 8 8 7 7 7 8 10 10 11 9 5 5 7 9 10 9 10 12 10 11 9 4 12 22 15 7 9 10 10 12 10 6 5 9 14 15 12 10 8 4 5 9 9 9 8
12 13 14 14 13 11 9 9 9 10 10 9 8 8 7 5 5 5 5 7 9 13 16 18 19 17 18 18 15 12 10 11 11 5 5 19 34 38 27 13 8 9 8 8 7 7 8 9 11 10 3 4 8 9 11 12 9 9 11 13 12 5 6 18 20 12 10 10 9 9 9 5 3 4 7 11 13 12 10 8 5 4 6 9 9
11 13 15 14 13 12 10 9 11 11 10 10 9 7 5 5 5 4 5 8 11 16 18 18 18 17 16 16 15 14 13 13 12 6 7 19 31 37 33 19 10 9 9 9 7 5 6 7 10 10 5 6 11 11 12 13 7 4 9 15 15 9 8 16 21 17 12 10 8 7 7 5 2 0 -0 3 8 9 8 8 9 7 6 9 11
11 13 15 16 14 12 10 10 11 11 11 11 8 6 5 4 4 3 5 9 13 18 18 15 16 17 16 15 15 15 15 14 11 6 10 22 30 35 34 22 13 11 10 10 10 6 6 7 8 9 8 8 11 12 12 11 7 4 9 17 18 10 4 9 21 25 18 11 11 11 7 6 7 6 4 5 7 8 8 7 7 8 6 7 12
12 12 14 15 14 13 11 11 11 12 12 11 8 6 4 4 4 4 6 10 15 18 16 14 15 16 17 17 17 18 17 15 10 7 14 24 29 33 34 23 15 13 11 12 12 8 8 9 6 7 9 9 9 12 14 12 10 8 7 14 21 17 8 3 9 22 22 13 13 15 13 14 15 10 6 6 4 5 11 10 6 8 9 7 8
12 12 14 15 14 12 11 11 12 12 12 10 8 5 4 4 4 4 6 11 15 16 14 13 13 15 15 17 21 23 20 14 9 9 17 25 27 31 32 23 16 13 12 13 13 11 10 9 6 6 9 9 8 10 12 10 9 10 9 11 15 15 16 13 10 13 18 16 13 12 15 18 14 7 7 8 1 -1 9 13 6 5 7 6 6
11 12 13 14 15 13 11 10 11 12 11 10 8 5 4 4 4 4 7 12 15 14 12 10 10 12 12 15 25 30 22 12 8 11 18 23 24 27 29 24 17 11 10 12 13 13 13 11 10 9 7 9 9 9 11 11 10 8 7 9 11 9 12 18 20 16 14 17 14 9 10 13 11 10 14 16 8 2 8 16 15 10 7 5 4
10 12 13 14 15 13 11 10 10 10 11 10 8 6 4 4 4 5 7 11 14 13 10 9 9 10 12 19 30 33 21 10 8 12 17 19 20 25 27 25 19 11 9 11 12 13 14 13 13 11 8 8 10 10 11 15 15 11 7 9 12 11 9 12 19 19 14 16 17 11 6 7 11 14 13 12 13 7 0 5 14 15 12 8 4
8 10 13 15 14 12 11 10 9 10 11 10 8 6 5 5 5 5 7 11 14 12 8 8 9 10 15 26 35 32 18 10 10 12 15 17 18 22 25 24 19 12 8 9 11 13 15 15 14 13 12 10 10 11 10 11 13 14 12 9 8 10 10 8 12 15 14 17 21 18 12 6 7 13 12 10 14 13 3 0 7 14 15 10 6
6 7 10 14 16 15 12 10 9 9 9 10 9 7 5 5 4 6 9 12 14 11 7 7 9 10 17 30 36 28 15 10 11 12 14 15 16 20 23 22 20 14 8 7 9 11 14 16 15 14 13 10 9 13 14 12 13 13 10 7 7 9 11 10 9 10 12 16 21 23 21 13 8 11 15 14 13 12 8 1 1 11 19 14 5
6 5 6 10 15 18 16 12 10 9 9 9 9 8 6 5 4 6 8 12 14 12 7 7 10 10 18 31 33 23 13 10 12 14 14 13 14 18 21 20 19 16 11 6 5 7 11 16 15 14 13 12 10 13 15 14 12 9 6 7 9 11 13 14 13 11 9 11 15 20 23 20 15 12 14 16 17 18 17 11 5 3 10 14 8
9 7 6 6 9 14 17 16 12 9 9 9 8 8 7 5 5 6 8 12 15 12 7 7 9 10 18 29 29 20 13 11 11 14 15 13 14 16 18 19 18 17 14 7 2 4 9 14 15 14 13 14 14 14 13 12 9 7 7 10 12 12 14 15 13 10 8 7 9 15 19 20 19 17 14 13 16 21 23 22 17 8 3 9 13
14 11 9 7 6 8 12 17 16 12 10 9 8 7 7 6 6 6 7 11 15 13 8 7 9 10 16 24 26 19 13 11 12 14 14 14 14 15 16 18 17 17 16 10 5 3 5 10 15 15 12 14 15 13 11 9 8 7 7 9 11 12 14 14 12 10 9 7 8 13 19 20 18 16 14 12 11 14 17 18 18 13 6 6 9
14 14 13 10 7 5 5 10 16 16 13 10 9 8 7 7 6 6 6 10 15 15 9 7 9 11 13 19 23 20 14 11 11 13 15 14 14 15 16 16 16 16 16 13 9 4 2 4 11 15 14 13 13 12 11 9 8 8 8 8 9 11 11 12 12 11 9 9 10 13 16 19 19 16 13 13 11 10 11 18 25 23 12 4 3
11 14 15 13 10 7 4 3 8 14 16 14 11 9 8 7 7 6 6 8 14 16 11 7 9 10 11 15 20 21 18 14 12 12 14 14 14 14 15 16 15 14 14 14 12 8 3 2 6 11 13 13 12 11 10 9 9 9 8 7 8 9 10 10 11 11 10 9 11 14 15 17 20 19 16 14 15 13 9 12 24 31 27 16 9
11 12 15 16 14 11 7 4 2 6 12 15 14 10 8 8 8 7 6 7 13 16 13 8 8 10 11 13 16 19 20 18 16 15 14 14 14 14 14 16 15 13 13 14 12 11 9 6 3 5 9 12 13 12 11 10 10 10 9 8 8 8 9 9 8 9 9 8 8 14 20 21 19 19 19 14 12 17 18 14 14 23 30 30 27
13 11 13 17 17 15 12 9 4 2 5 11 15 13 9 8 8 7 6 7 11 15 15 10 8 9 11 13 14 16 19 18 17 17 16 15 15 15 14 15 16 14 13 12 11 11 12 9 6 4 5 6 8 10 10 10 10 9 9 8 7 7 7 7 7 7 7 7 6 9 13 15 16 20 23 15 3 4 13 16 14 12 14 18 21
14 12 12 14 17 18 16 13 10 7 4 6 12 14 12 9 8 7 6 6 9 13 15 12 10 8 10 12 11 11 13 14 13 13 15 16 17 17 16 15 15 16 14 13 12 11 11 10 9 8 6 5 5 6 7 7 7 6 6 6 5 5 4 4 4 5 4 5 6 8 8 9 11 15 17 14 9 7 8 10 13 14 12 13 13
13 13 12 12 14 17 17 15 12 9 8 8 10 13 13 11 9 8 7 5 7 11 13 13 12 10 10 11 11 9 8 7 6 6 8 10 12 16 18 17 16 16 15 14 13 12 11 10 9 9 9 9 7 6 6 6 5 4 4 4 4 3 3 3 2 3 4 4 5 6 8 8 8 9 9 9 11 14 13 9 9 10 10 13 16
12 13 13 13 13 15 17 17 14 11 9 10 11 12 13 12 10 8 7 5 5 9 13 12 12 11 11 10 11 12 12 11 9 8 7 7 7 11 16 19 19 17 16 16 15 13 12 11 10 10 9 10 10 9 9 8 8 7 6 5 5 5 4 4 3 2 4 5 6 6 7 8 8 9 9 9 8 9 12 12 12 12 10 10 12
10 11 13 13 13 14 16 18 17 13 11 11 13 13 13 13 11 9 8 6 5 7 11 12 11 11 11 11 11 12 14 15 16 14 12 9 7 8 12 19 22 21 18 16 16 15 14 13 12 12 11 10 10 10 10 10 9 9 9 8 7 7 7 6 6 7 5 5 7 8 7 7 9 10 9 9 9 9 8 9 11 12 14 14 14
9 10 12 12 12 14 15 18 19 16 11 10 13 13 13 13 12 10 9 8 6 5 9 13 12 10 9 11 12 12 12 13 16 17 14 11 9 9 12 17 22 25 23 18 16 16 15 15 14 13 12 12 11 10 10 11 10 10 10 9 8 9 10 10 10 10 9 8 7 8 9 10 11 11 10 9 9 9 8 8 10 11 13 15 16
10 10 11 11 11 13 15 17 19 19 14 10 11 13 13 13 13 12 10 9 7 5 6 11 13 11 9 9 11 13 12 11 12 15 16 14 11 11 13 15 19 23 25 24 20 16 15 15 15 14 13 12 12 11 10 10 10 10 10 10 10 10 10 11 11 10 11 11 10 8 8 10 11 11 11 11 11 10 9 10 11 13 16 17 17
10 10 11 11 11 12 15 17 18 19 17 12 9 10 12 13 14 14 11 9 9 7 6 8 11 11 10 9 9 11 12 11 10 11 14 15 14 13 13 15 17 19 22 25 24 21 17 15 14 14 13 12 11 11 11 10 10 9 9 9 9 9 9 9 11 11 10 11 12 11 9 9 11 11 12 13 14 15 14 14 16 17 18 19 19
10 9 10 12 12 12 14 16 16 16 17 15 12 11 11 12 14 15 13 11 9 8 6 6 8 10 11 10 9 9 10 11 10 9 9 12 13 13 12 13 14 16 19 22 24 24 21 19 17 15 14 13 12 11 11 10 10 9 9 9 8 9 9 9 9 10 11 12 12 12 11 10 10 12 13 14 16 17 18 19 19 19 20 20 20
10 9 9 11 12 12 13 15 16 16 16 15 12 11 10 11 12 14 15 13 10 9 8 6 6 7 9 10 10 9 10 11 11 9 8 9 11 12 11 11 13 15 16 19 22 24 23 22 20 19 17 16 15 14 13 13 12 11 11 11 10 10 11 11 11 11 12 12 11 11 12 11 10 12 13 14 15 17 18 19 18 18 18 18 17
9 10 10 10 11 12 12 13 15 14 10 9 10 10 10 11 12 13 15 14 12 11 9 7 7 7 7 8 10 10 10 10 11 11 9 8 9 10 9 9 11 12 14 15 17 21 22 22 21 21 20 19 18 17 16 15 15 14 14 14 14 13 13 13 14 12 11 10 10 10 11 11 11 11 11 12 13 14 14 14 14 14 14 14 13
9 10 11 10 10 11 11 12 14 11 5 4 6 8 8 9 10 11 13 14 14 12 11 9 8 6 6 7 8 9 9 10 10 10 10 9 9 10 9 9 9 10 11 12 13 15 18 19 20 20 20 20 19 19 19 18 17 16 16 15 15 14 14 13 12 11 10 9 9 10 11 11 12 11 11 11 11 11 11 11 10 9 9 8 9
9 10 10 9 11 12 11 11 12 12 10 8 8 9 9 9 8 8 9 12 13 13 12 11 10 8 6 6 7 7 7 8 8 8 8 9 9 10 10 10 9 9 9 9 11 12 13 14 16 17 17 17 17 17 17 17 16 16 15 15 14 13 12 11 10 10 11 11 11 12 12 12 13 13 12 10 9 8 8 9 9 8 8 7 8
10 9 9 10 12 13 11 11 10 11 12 13 14 13 13 13 11 9 7 9 11 13 13 11 11 10 8 6 6 7 7 7 7 7 6 6 7 7 9 10 11 11 10 9 9 10 11 11 12 13 13 14 14 14 14 14 14 13 13 13 12 12 11 11 12 12 12 12 12 12 12 12 12 11 11 10 9 8 8 7 7 7 8 8 8
8 9 9 10 10 11 11 12 12 10 9 11 12 12 12 14 16 14 11 9 11 15 17 15 11 10 10 8 6 6 6 7 7 7 7 6 6 6 7 9 10 11 11 11 10 10 10 10 11 11 11 11 11 12 12 12 12 12 12 12 12 12 12 12 12 12 11 11 11 11 10 10 10 10 10 10 10 9 8 7 8 8 8 7 7
3 5 8 8 7 9 11 12 13 13 12 10 10 9 7 7 10 12 10 8 10 16 23 24 18 12 11 10 8 6 6 6 7 7 7 7 6 7 7 8 9 10 9 10 10 10 10 11 11 11 11 10 10 10 10 10 10 10 10 10 10 10 10 10 9 10 9 9 9 9 9 10 10 11 11 10 10 9 9 9 9 8 7 6 5
7 9 11 9 7 10 12 13 13 14 14 12 10 8 6 6 8 10 7 3 2 7 16 23 24 19 14 11 10 9 7 6 6 6 7 7 7 7 7 7 8 8 8 8 8 8 9 10 10 11 11 11 11 10 10 10 10 10 10 10 9 9 10 9 9 9 9 10 10 10 10 10 10 10 9 8 8 7 7 7 7 7 6 5 5
14 12 12 11 9 8 10 13 13 13 13 13 12 11 9 8 7 10 15 14 8 5 8 13 18 21 19 15 12 10 9 8 7 6 7 8 7 6 6 7 6 6 7 8 8 8 8 8 8 9 10 10 10 10 10 10 10 10 10 10 10 10 10 10 10 11 10 10 10 10 9 9 9 8 7 7 6 6 6 6 5 4 4 5 5
14 12 10 11 11 9 8 10 14 15 13 13 13 13 12 11 8 11 22 26 17 9 8 10 12 16 20 20 17 12 9 9 9 8 7 7 7 7 6 6 6 6 6 6 5 6 7 7 7 8 8 8 8 9 8 9 9 9 9 9 10 10 10 10 10 10 10 10 9 9 8 8 7 6 6 6 5 5 5 5 5 5 4 4 5
14 14 12 11 12 12 10 9 12 15 15 14 13 12 13 15 14 12 15 17 13 8 8 9 9 11 14 18 20 19 14 10 9 10 10 8 7 8 8 7 5 5 5 5 6 5 5 5 6 6 6 7 7 7 7 7 8 8 8 7 8 8 8 8 8 8 8 8 8 7 7 7 6 6 6 5 5 5 4 4 5 5 5 6 6
14 15 14 12 10 11 11 10 10 13 16 16 15 13 13 14 14 12 10 8 8 8 10 10 10 11 11 13 16 20 21 17 12 9 10 10 9 8 8 9 8 7 5 5 6 6 5 5 5 5 5 5 5 6 6 6 6 7 7 7 7 7 7 7 7 7 7 7 7 7 6 6 6 5 5 5 5 5 5 5 6 6 7 8 8
14 14 14 14 11 10 12 13 11 11 14 16 16 16 15 12 10 11 12 10 8 7 6 6 7 9 10 9 9 12 18 22 20 14 10 9 10 9 8 8 9 9 8 8 7 7 7 7 6 5 5 5 5 5 5 5 5 6 6 6 6 6 6 6 7 7 7 6 6 6 5 5 5 5 5 5 6 6 6 7 8 8 9 10 10
13 13 14 15 14 12 11 12 12 11 12 14 16 17 16 12 7 7 10 12 13 11 7 5 6 8 10 10 9 8 11 18 24 23 18 11 8 9 10 9 8 8 9 10 9 8 7 7 8 8 7 7 6 7 7 7 7 7 7 7 7 7 7 8 7 7 6 6 5 5 5 5 5 5 6 6 7 8 9 10 10 11 11 11 10
12 13 14 15 16 15 12 12 14 14 13 13 15 17 17 16 14 12 8 6 7 9 10 10 11 11 9 9 10 10 9 10 16 23 26 22 15 10 9 10 11 10 9 9 9 9 8 7 7 8 8 8 7 7 7 7 7 7 7 7 8 8 9 10 10 10 9 8 8 8 8 8 8 9 9 10 10 11 11 11 11 11 10 9 7
12 12 10 10 14 17 16 14 13 14 14 14 15 16 16 16 18 20 17 11 7 5 5 6 9 10 8 7 8 9 9 8 9 14 21 25 25 19 12 9 9 11 10 9 8 8 9 9 8 8 9 8 8 7 7 7 7 7 7 7 7 8 9 10 11 12 11 11 11 11 11 11 11 11 11 11 11 12 12 12 10 9 8 7 5
12 11 10 10 12 16 17 16 13 12 13 13 14 16 16 14 14 17 19 18 15 11 6 5 9 13 11 5 3 6 8 7 6 8 12 17 23 25 21 15 10 8 9 10 9 8 9 10 10 10 9 9 8 8 8 7 7 7 7 7 7 8 9 10 11 12 12 12 12 12 11 11 11 11 12 12 12 11 10 9 7 5 4 4 4
12 11 11 11 12 14 16 17 16 14 12 12 14 16 17 16 15 15 18 18 18 18 16 13 14 19 19 11 5 6 7 5 4 7 10 12 15 19 22 22 18 12 9 9 9 9 8 9 10 10 10 10 10 9 8 8 9 9 8 7 7 8 9 10 10 11 12 12 11 10 10 11 11 11 11 11 8 5 4 4 4 3 3 4 6
9 9 9 9 11 13 15 16 17 16 14 12 12 12 13 15 15 15 17 18 16 16 18 17 13 14 16 13 8 6 8 8 7 7 9 11 13 15 17 20 21 18 14 10 9 9 9 9 9 10 10 10 9 9 8 8 8 8 8 9 8 8 9 9 10 11 11 10 10 10 11 12 10 8 7 6 4 2 1 3 4 5 5 6 6
8 9 9 10 11 14 16 17 18 16 14 13 11 8 10 14 16 14 15 18 16 13 14 14 11 10 13 15 12 9 9 9 9 9 9 9 11 12 14 17 20 21 19 14 11 10 10 10 10 10 10 10 9 9 9 8 8 8 9 9 8 7 7 9 11 11 11 11 12 12 11 9 5 2 1 2 3 4 5 6 7 7 7 7 6
9 10 11 12 13 14 16 18 18 16 15 15 12 6 5 11 15 15 15 17 17 14 10 5 4 8 14 15 13 12 10 8 7 7 9 10 11 10 10 14 19 23 24 22 16 12 11 11 11 11 11 10 10 9 9 9 9 9 9 8 8 8 9 9 10 11 12 12 11 8 5 2 2 2 4 6 7 8 8 8 8 8 8 7 6
9 10 12 14 14 16 18 18 17 15 13 14 12 9 7 12 16 16 15 16 18 16 11 5 3 7 11 11 8 9 11 11 8 6 6 9 11 10 9 11 15 19 23 25 23 19 14 11 11 12 13 13 12 11 11 10 10 9 9 9 9 9 9 10 11 12 13 11 8 4 2 2 3 6 9 9 9 8 8 7 7 6 6 4 3
Height
5745 5744 5744 5743 5743 5743 5744 5744 5744 5743 5743 5743 5743 5742 5741 5741 5740 5740 5739 5739 5739 5738 5737 5737 5737 5736 5736 5735 5735 5734 5734 5734 5734 5734 5735 5736 5737 5738 5739 5740 5741 5742 5743 5745 5746 5747 5748 5749 5750 5752 5754 5755 5757 5758 5760 5762 5763 5764 5765 5767 5769 5771 5772 5775 5777 5778 5779 5781 5782 5783 5785 5787 5788 5790 5791 5792 5794 5795 5797 5798 5799 5799 5800 5801 5802
5743 5742 5741 5741 5741 5741 5741 5741 5741 5740 5740 5740 5740 5739 5739 5738 5737 5736 5736 5736 5735 5735 5734 5733 5733 5732 5732 5731 5731 5730 5730 5729 5729 5729 5729 5730 5732 5733 5734 5736 5737 5738 5739 5740 5742 5743 5744 5745 5746 5747 5749 5751 5753 5754 5756 5758 5759 5760 5762 5763 5765 5767 5769 5770 5773 5774 5775 5777 5779 5780 5781 5783 5785 5786 5788 5789 5791 5791 5793 5793 5794 5795 5796 5798 5800
5741 5740 5739 5739 5738 5738 5738 5738 5738 5738 5737 5737 5737 5736 5736 5735 5734 5734 5733 5733 5732 5731 5730 5729 5728 5728 5727 5727 5727 5726 5726 5725 5725 5725 5724 5725 5726 5727 5730 5731 5732 5733 5735 5736 5737 5738 5740 5741 5742 5743 5746 5747 5749 5750 5752 5754 5756 5757 5758 5759 5761 5763 5765 5767 5769 5771 5772 5774 5775 5777 5778 5780 5782 5782 5784 5786 5787 5788 5789 5789 5790 5792 5794 5796 5797
5739 5739 5738 5737 5736 5736 5735 5735 5735 5735 5735 5734 5734 5733 5733 5733 5732 5731 5731 5730 5729 5727 5726 5725 5724 5723 5722 5722 5722 5722 5721 5721 5721 5720 5720 5719 5720 5721 5724 5726 5727 5729 5730 5732 5733 5734 5735 5737 5739 5740 5742 5743 5745 5746 5749 5751 5752 5753 5754 5755 5757 5759 5761 5763 5765 5767 5769 5770 5771 5774 5776 5777 5777 5778 5779 5781 5782 5784 5785 5786 5786 5788 5791 5793 5794
5738 5737 5736 5735 5734 5734 5733 5733 5733 5732 5732 5731 5731 5731 5730 5730 5729 5729 5727 5726 5725 5723 5722 5720 5719 5718 5717 5717 5717 5717 5717 5716 5716 5716 5715 5714 5714 5715 5718 5720 5722 5724 5726 5728 5729 5730 5731 5733 5735 5736 5737 5738 5740 5742 5744 5747 5748 5749 5750 5751 5754 5755 5756 5757 5760 5762 5764 5766 5767 5769 5771 5772 5773 5775 5776 5777 5778 5779 5781 5782 5783 5784 5786 5789 5791
5736 5735 5733 5733 5732 5732 5731 5731 5730 5730 5729 5729 5728 5728 5728 5727 5726 5725 5724 5723 5721 5719 5717 5716 5715 5714 5713 5712 5712 5712 5711 5711 5711 5711 5710 5709 5709 5710 5712 5715 5717 5720 5722 5723 5724 5726 5727 5728 5730 5731 5732 5733 5735 5737 5740 5742 5744 5744 5746 5748 5750 5751 5752 5753 5755 5758 5760 5762 5763 5765 5766 5767 5769 5771 5772 5773 5774 5775 5776 5777 5778 5779 5781 5784 5787
5734 5733 5731 5730 5730 5729 5729 5728 5728 5727 5727 5726 5726 5726 5725 5724 5723 5722 5721 5719 5717 5715 5713 5712 5711 5710 5709 5708 5707 5707 5707 5706 5706 5706 5705 5705 5704 5704 5706 5709 5712 5715 5717 5719 5720 5722 5723 5724 5726 5728 5729 5731 5732 5734 5736 5738 5739 5741 5742 5744 5746 5748 5749 5750 5752 5754 5756 5758 5759 5761 5762 5763 5765 5767 5768 5769 5770 5771 5771 5773 5774 5774 5776 5779 5782
5731 5730 5729 5728 5728 5727 5726 5726 5725 5725 5724 5724 5723 5723 5722 5722 5720 5719 5717 5715 5713 5711 5710 5708 5707 5706 5705 5704 5703 5702 5702 5702 5701 5701 5700 5700 5699 5699 5701 5704 5707 5710 5713 5715 5717 5718 5719 5720 5723 5725 5726 5728 5730 5731 5733 5735 5736 5738 5740 5742 5743 5744 5746 5747 5748 5750 5752 5754 5755 5756 5758 5759 5761 5763 5764 5764 5766 5766 5767 5768 5770 5771 5772 5774 5777
5729 5728 5727 5726 5725 5725 5724 5724 5723 5722 5722 5722 5721 5721 5720 5719 5717 5716 5714 5712 5710 5708 5707 5705 5704 5702 5701 5700 5699 5698 5697 5697 5697 5696 5696 5695 5695 5695 5697 5700 5703 5706 5709 5711 5713 5714 5715 5717 5719 5720 5722 5724 5727 5728 5730 5731 5733 5735 5737 5739 5740 5741 5743 5744 5745 5746 5747 5749 5751 5752 5754 5755 5757 5759 5760 5760 5761 5762 5763 5764 5766 5767 5768 5770 5772
5728 5726 5725 5724 5723 5723 5722 5721 5721 5720 5720 5719 5719 5718 5717 5716 5715 5713 5711 5709 5707 5705 5703 5702 5700 5699 5697 5696 5695 5694 5693 5693 5693 5692 5692 5691 5691 5692 5693 5696 5699 5702 5704 5707 5709 5711 5712 5714 5715 5716 5718 5721 5723 5724 5726 5727 5730 5732 5734 5736 5737 5738 5739 5740 5741 5742 5743 5745 5747 5749 5751 5752 5753 5755 5755 5755 5756 5758 5759 5760 5762 5763 5765 5766 5768
5726 5725 5723 5722 5721 5720 5720 5719 5719 5718 5718 5717 5716 5715 5714 5713 5712 5710 5708 5706 5704 5702 5700 5699 5697 5696 5694 5692 5691 5689 5689 5689 5689 5689 5688 5688 5688 5689 5690 5692 5695 5698 5700 5703 5705 5708 5709 5710 5712 5713 5715 5716 5718 5720 5721 5723 5726 5728 5730 5732 5733 5734 5735 5736 5737 5738 5740 5742 5743 5745 5746 5747 5749 5750 5750 5751 5753 5754 5755 5756 5757 5759 5761 5763 5764
5724 5723 5722 5720 5719 5718 5717 5717 5717 5716 5715 5715 5714 5713 5712 5711 5709 5707 5705 5703 5701 5699 5697 5696 5694 5692 5690 5688 5687 5686 5685 5686 5686 5686 5686 5685 5685 5686 5687 5689 5692 5694 5697 5699 5702 5704 5706 5707 5709 5710 5711 5712 5715 5717 5718 5720 5722 5724 5727 5728 5729 5730 5731 5732 5733 5735 5736 5738 5739 5740 5742 5743 5744 5745 5745 5747 5749 5750 5751 5753 5754 5754 5756 5758 5760
5723 5721 5720 5718 5717 5716 5715 5715 5714 5714 5713 5712 5711 5711 5710 5709 5707 5705 5703 5701 5699 5697 5695 5693 5691 5689 5687 5685 5683 5682 5683 5683 5683 5683 5683 5683 5683 5684 5685 5687 5689 5691 5693 5696 5699 5701 5703 5704 5706 5707 5708 5709 5711 5713 5715 5717 5719 5722 5723 5724 5726 5727 5728 5729 5730 5731 5732 5733 5734 5736 5737 5739 5739 5740 5741 5742 5744 5745 5746 5748 5750 5750 5751 5754 5756
5721 5719 5718 5717 5715 5714 5713 5713 5712 5711 5711 5710 5709 5708 5707 5706 5705 5703 5701 5699 5697 5695 5693 5691 5689 5687 5684 5682 5680 5680 5680 5681 5681 5681 5681 5681 5681 5682 5683 5684 5686 5688 5690 5693 5696 5698 5700 5701 5702 5704 5705 5706 5708 5710 5712 5714 5717 5719 5720 5721 5722 5724 5725 5725 5726 5727 5728 5729 5730 5731 5733 5735 5735 5735 5736 5737 5739 5741 5743 5744 5745 5747 5748 5749 5751
5719 5718 5717 5715 5714 5712 5711 5710 5710 5709 5708 5708 5707 5706 5705 5704 5702 5701 5699 5697 5695 5693 5691 5689 5687 5684 5682 5680 5679 5678 5678 5679 5679 5679 5679 5679 5679 5680 5681 5682 5684 5686 5688 5690 5693 5695 5697 5698 5700 5701 5703 5704 5705 5707 5709 5711 5713 5715 5716 5718 5720 5721 5721 5722 5723 5723 5724 5726 5726 5727 5728 5730 5731 5731 5732 5733 5735 5738 5739 5740 5741 5742 5744 5745 5747
5717 5715 5714 5713 5712 5710 5709 5708 5707 5706 5706 5705 5704 5704 5703 5702 5700 5699 5697 5695 5693 5691 5689 5687 5685 5683 5681 5679 5677 5677 5677 5677 5677 5677 5677 5677 5677 5678 5679 5680 5682 5684 5686 5688 5690 5692 5694 5695 5697 5699 5700 5701 5702 5704 5706 5708 5710 5712 5713 5715 5716 5717 5718 5719 5719 5720 5721 5722 5723 5724 5724 5726 5727 5727 5728 5730 5732 5735 5736 5736 5736 5737 5739 5741 5743
5714 5713 5712 5711 5710 5708 5707 5706 5705 5704 5703 5702 5702 5701 5700 5699 5698 5697 5695 5693 5691 5689 5688 5685 5683 5681 5679 5678 5676 5676 5676 5675 5675 5675 5675 5675 5676 5676 5677 5678 5680 5682 5684 5686 5687 5689 5691 5693 5695 5696 5697 5698 5700 5701 5703 5705 5707 5709 5710 5712 5713 5714 5715 5716 5717 5717 5718 5719 5719 5720 5720 5721 5722 5723 5724 5726 5727 5730 5732 5732 5731 5733 5735 5737 5738
5712 5710 5709 5708 5707 5706 5705 5704 5702 5701 5700 5699 5699 5698 5698 5697 5696 5695 5693 5691 5689 5688 5686 5684 5682 5680 5678 5677 5676 5675 5674 5674 5674 5674 5673 5673 5674 5675 5676 5677 5678 5680 5681 5683 5685 5687 5689 5690 5692 5694 5695 5696 5697 5698 5701 5703 5704 5705 5707 5709 5710 5711 5712 5713 5714 5715 5715 5716 5716 5716 5717 5717 5718 5719 5720 5721 5723 5724 5726 5727 5727 5728 5730 5732 5733
5709 5708 5707 5705 5705 5704 5703 5702 5701 5699 5698 5697 5696 5696 5695 5694 5693 5692 5691 5689 5688 5686 5685 5683 5681 5679 5677 5676 5675 5674 5673 5672 5672 5672 5672 5672 5672 5673 5674 5675 5676 5677 5679 5681 5683 5684 5686 5687 5689 5691 5692 5693 5695 5696 5698 5700 5701 5702 5704 5705 5707 5708 5709 5710 5711 5712 5712 5713 5713 5714 5714 5714 5714 5715 5716 5717 5718 5720 5721 5722 5723 5724 5725 5727 5728
5706 5705 5704 5703 5702 5701 5700 5699 5698 5697 5696 5695 5694 5693 5693 5692 5691 5690 5689 5687 5686 5684 5683 5681 5680 5678 5676 5675 5674 5673 5672 5671 5671 5671 5671 5670 5671 5671 5672 5672 5674 5675 5676 5678 5680 5681 5682 5684 5686 5688 5690 5691 5692 5694 5695 5697 5698 5700 5701 5702 5703 5705 5706 5707 5708 5709 5709 5710 5711 5711 5711 5711 5711 5712 5713 5713 5714 5716 5717 5718 5719 5720 5721 5722 5723
5704 5702 5701 5700 5699 5698 5697 5696 5696 5695 5694 5692 5691 5691 5690 5689 5689 5688 5687 5686 5684 5683 5681 5680 5678 5677 5676 5674 5673 5672 5671 5671 5670 5670 5669 5669 5669 5669 5670 5670 5671 5672 5674 5676 5677 5678 5680 5682 5684 5685 5687 5689 5690 5691 5692 5694 5695 5697 5698 5699 5701 5702 5703 5704 5705 5706 5706 5707 5708 5708 5709 5709 5709 5709 5710 5711 5712 5713 5714 5714 5715 5716 5717 5717 5718
5702 5700 5699 5697 5696 5695 5694 5694 5693 5692 5691 5690 5689 5688 5687 5687 5686 5685 5685 5684 5682 5681 5680 5678 5677 5676 5675 5674 5673 5672 5671 5670 5669 5669 5668 5668 5668 5668 5668 5668 5669 5670 5671 5672 5674 5675 5677 5679 5681 5682 5684 5686 5687 5688 5690 5691 5692 5694 5696 5697 5698 5699 5700 5701 5702 5703 5703 5704 5705 5705 5706 5706 5707 5707 5708 5708 5709 5710 5710 5711 5711 5712 5712 5713 5714
5699 5698 5696 5695 5693 5692 5691 5690 5690 5689 5688 5687 5686 5685 5685 5684 5684 5683 5682 5682 5681 5679 5678 5677 5676 5675 5673 5673 5672 5671 5670 5670 5669 5668 5667 5667 5666 5666 5666 5666 5667 5667 5668 5669 5671 5672 5674 5676 5678 5679 5681 5682 5684 5685 5687 5688 5689 5691 5692 5694 5695 5695 5696 5697 5698 5699 5700 5701 5701 5702 5703 5703 5704 5704 5705 5705 5705 5706 5707 5707 5708 5708 5708 5709 5709
5696 5695 5694 5692 5691 5689 5688 5687 5686 5686 5685 5684 5683 5683 5682 5681 5681 5681 5680 5679 5679 5678 5676 5675 5674 5673 5672 5671 5671 5670 5669 5668 5668 5667 5666 5666 5665 5664 5664 5664 5664 5665 5666 5666 5668 5669 5671 5672 5674 5676 5677 5679 5681 5682 5683 5685 5686 5688 5689 5690 5691 5692 5693 5694 5695 5696 5696 5697 5698 5699 5699 5700 5700 5701 5701 5702 5702 5702 5703 5703 5704 5704 5705 5705 5705
5694 5693 5691 5690 5688 5687 5685 5684 5683 5683 5682 5681 5680 5680 5679 5679 5678 5678 5678 5677 5676 5676 5675 5674 5673 5672 5671 5670 5669 5669 5668 5667 5666 5665 5665 5664 5663 5663 5662 5662 5662 5662 5663 5663 5665 5666 5667 5669 5671 5672 5674 5676 5677 5679 5680 5681 5683 5684 5686 5687 5688 5689 5690 5690 5692 5692 5693 5694 5695 5696 5696 5696 5697 5697 5698 5698 5699 5699 5699 5699 5700 5700 5700 5701 5701
5692 5690 5688 5687 5686 5684 5683 5681 5681 5680 5679 5678 5678 5677 5677 5676 5676 5675 5675 5675 5674 5674 5673 5672 5671 5670 5669 5668 5668 5667 5666 5665 5665 5664 5663 5662 5662 5661 5660 5660 5659 5659 5659 5660 5662 5663 5664 5665 5667 5669 5670 5672 5673 5675 5676 5678 5679 5681 5682 5683 5684 5685 5686 5687 5688 5689 5690 5691 5691 5692 5692 5693 5693 5693 5694 5694 5694 5695 5695 5695 5695 5696 5696 5697 5697
5689 5687 5686 5684 5683 5681 5680 5679 5678 5677 5676 5675 5675 5674 5674 5674 5673 5673 5672 5672 5672 5672 5671 5671 5670 5669 5668 5667 5666 5666 5665 5664 5663 5662 5662 5661 5660 5659 5659 5658 5657 5657 5657 5657 5658 5660 5661 5662 5664 5665 5667 5668 5670 5671 5673 5674 5676 5677 5678 5680 5681 5682 5683 5684 5685 5686 5686 5687 5688 5688 5689 5689 5690 5690 5690 5691 5691 5691 5691 5692 5692 5692 5693 5693 5693
5687 5685 5683 5682 5680 5679 5678 5676 5675 5675 5674 5673 5672 5672 5671 5671 5671 5670 5670 5670 5670 5670 5669 5669 5668 5667 5666 5666 5665 5664 5664 5663 5662 5661 5660 5660 5659 5658 5657 5657 5656 5655 5655 5655 5656 5656 5658 5659 5660 5662 5663 5665 5666 5668 5669 5670 5672 5673 5674 5676 5677 5678 5679 5680 5681 5682 5683 5684 5684 5685 5685 5686 5686 5686 5687 5687 5687 5687 5688 5688 5688 5688 5689 5689 5690
5685 5682 5681 5680 5678 5677 5675 5674 5673 5672 5671 5671 5670 5669 5669 5669 5669 5668 5667 5667 5667 5667 5667 5667 5666 5665 5665 5664 5664 5663 5662 5662 5661 5660 5659 5659 5658 5657 5656 5656 5655 5655 5654 5654 5654 5654 5655 5656 5657 5658 5660 5661 5663 5664 5665 5667 5668 5669 5671 5672 5673 5674 5675 5676 5677 5678 5679 5680 5681 5681 5682 5682 5682 5683 5683 5683 5683 5684 5684 5684 5685 5685 5685 5686 5686
5682 5680 5678 5677 5676 5674 5673 5672 5671 5670 5669 5668 5668 5667 5666 5666 5666 5665 5665 5664 5664 5665 5665 5664 5664 5664 5663 5663 5662 5661 5661 5660 5660 5659 5658 5658 5657 5656 5656 5655 5654 5654 5653 5653 5653 5653 5653 5654 5655 5656 5657 5658 5659 5661 5662 5663 5664 5666 5667 5668 5669 5670 5671 5673 5674 5674 5675 5676 5677 5678 5678 5679 5679 5679 5680 5680 5680 5681 5681 5681 5681 5682 5682 5682 5683
5679 5677 5675 5674 5673 5672 5671 5669 5668 5668 5667 5666 5666 5665 5664 5663 5663 5663 5662 5662 5662 5662 5662 5662 5662 5661 5661 5661 5660 5660 5659 5659 5658 5658 5657 5657 5656 5655 5655 5654 5654 5653 5653 5652 5652 5652 5652 5653 5653 5654 5655 5656 5657 5658 5659 5660 5661 5662 5664 5665 5666 5667 5668 5669 5670 5671 5672 5673 5674 5675 5675 5676 5676 5677 5677 5677 5678 5678 5678 5679 5679 5679 5679 5680 5680
5676 5674 5673 5672 5670 5669 5668 5667 5666 5665 5665 5664 5663 5663 5662 5661 5660 5660 5659 5659 5659 5659 5659 5659 5659 5659 5659 5659 5658 5658 5657 5657 5657 5656 5656 5655 5655 5654 5654 5653 5653 5652 5652 5652 5652 5652 5652 5652 5652 5653 5653 5654 5655 5656 5657 5658 5659 5660 5661 5662 5663 5664 5665 5666 5667 5668 5669 5670 5671 5672 5672 5673 5674 5674 5675 5675 5675 5676 5676 5676 5677 5677 5677 5678 5678
5673 5671 5670 5669 5668 5667 5665 5664 5663 5662 5662 5661 5660 5660 5659 5659 5658 5657 5656 5656 5656 5656 5656 5656 5656 5656 5656 5656 5656 5656 5655 5655 5655 5654 5654 5654 5653 5653 5653 5652 5652 5652 5651 5651 5651 5651 5651 5651 5651 5652 5652 5653 5653 5654 5655 5656 5657 5658 5659 5660 5661 5662 5663 5664 5665 5666 5666 5667 5668 5669 5670 5671 5671 5672 5672 5673 5673 5673 5674 5674 5674 5675 5675 5675 5676
5670 5668 5667 5665 5664 5663 5662 5661 5660 5659 5658 5658 5657 5656 5656 5655 5655 5655 5654 5653 5653 5653 5653 5653 5653 5653 5653 5653 5654 5653 5653 5653 5652 5652 5652 5652 5652 5651 5651 5651 5651 5651 5650 5650 5650 5650 5650 5650 5650 5651 5651 5652 5652 5653 5653 5654 5655 5656 5657 5658 5659 5660 5660 5661 5662 5663 5664 5665 5666 5667 5667 5668 5669 5670 5670 5671 5671 5671 5671 5672 5672 5672 5673 5673 5673
5667 5665 5664 5662 5661 5660 5659 5658 5657 5656 5655 5654 5654 5653 5652 5652 5651 5651 5651 5651 5650 5649 5649 5649 5649 5649 5650 5650 5650 5651 5651 5651 5650 5650 5650 5650 5650 5650 5650 5650 5649 5649 5649 5649 5649 5649 5649 5649 5650 5650 5650 5650 5651 5651 5652 5653 5653 5654 5655 5656 5657 5658 5658 5659 5660 5661 5662 5663 5663 5664 5665 5666 5666 5667 5668 5668 5668 5668 5669 5669 5669 5669 5670 5670 5670
5663 5662 5660 5658 5657 5656 5655 5654 5653 5652 5652 5651 5650 5650 5649 5648 5648 5648 5648 5648 5647 5646 5646 5645 5645 5646 5646 5647 5647 5648 5648 5648 5648 5648 5648 5648 5648 5648 5648 5648 5648 5648 5648 5648 5648 5648 5648 5648 5648 5649 5649 5649 5650 5650 5651 5651 5652 5652 5653 5654 5655 5656 5656 5657 5658 5659 5659 5660 5661 5662 5662 5663 5663 5664 5665 5665 5665 5666 5666 5666 5666 5667 5667 5667 5667
5659 5658 5656 5655 5653 5652 5651 5650 5648 5648 5648 5648 5647 5646 5645 5645 5644 5644 5644 5644 5644 5644 5643 5642 5642 5642 5643 5643 5644 5644 5644 5645 5645 5645 5645 5645 5646 5646 5646 5646 5646 5646 5646 5646 5646 5646 5646 5646 5647 5647 5647 5648 5648 5649 5649 5649 5650 5651 5651 5652 5653 5653 5654 5655 5656 5656 5657 5658 5658 5659 5659 5660 5660 5661 5661 5662 5662 5662 5663 5663 5663 5663 5664 5664 5664
5655 5654 5652 5651 5649 5648 5647 5646 5645 5643 5643 5643 5643 5642 5641 5641 5640 5640 5640 5640 5640 5640 5640 5640 5639 5639 5639 5639 5640 5640 5641 5641 5641 5642 5642 5643 5643 5643 5644 5644 5644 5644 5644 5645 5645 5645 5645 5645 5645 5645 5646 5646 5646 5647 5647 5647 5648 5649 5649 5650 5650 5651 5652 5652 5653 5654 5654 5655 5655 5656 5656 5657 5657 5658 5658 5659 5659 5659 5659 5659 5659 5660 5660 5660 5660
5651 5650 5648 5646 5645 5644 5643 5642 5641 5640 5639 5638 5638 5638 5637 5637 5637 5637 5636 5636 5636 5636 5637 5637 5637 5636 5635 5635 5636 5636 5636 5637 5638 5638 5639 5639 5640 5640 5641 5641 5641 5642 5642 5643 5643 5643 5643 5643 5643 5644 5644 5644 5644 5645 5645 5645 5646 5647 5647 5647 5648 5649 5649 5650 5650 5651 5652 5652 5653 5653 5653 5654 5654 5654 5655 5655 5655 5655 5655 5655 5655 5655 5655 5655 5655
5647 5645 5644 5642 5641 5639 5638 5638 5637 5636 5635 5635 5634 5634 5633 5633 5633 5633 5632 5632 5632 5632 5632 5633 5633 5633 5632 5632 5632 5632 5632 5633 5633 5634 5635 5635 5636 5637 5637 5638 5638 5639 5639 5640 5640 5641 5641 5641 5642 5642 5642 5642 5642 5643 5643 5643 5644 5644 5645 5645 5646 5646 5647 5647 5648 5648 5649 5649 5650 5650 5650 5651 5651 5651 5651 5651 5652 5652 5652 5651 5651 5651 5651 5651 5651
5642 5641 5639 5638 5637 5635 5634 5633 5633 5632 5631 5631 5630 5630 5629 5629 5629 5629 5628 5628 5628 5628 5628 5628 5629 5629 5630 5629 5628 5628 5628 5629 5630 5630 5631 5631 5632 5632 5633 5634 5634 5635 5636 5637 5637 5638 5638 5639 5639 5639 5640 5640 5640 5641 5641 5641 5642 5642 5643 5643 5643 5644 5644 5645 5645 5646 5646 5646 5647 5647 5647 5647 5647 5647 5647 5647 5647 5647 5647 5647 5647 5647 5647 5647 5646
5637 5636 5634 5633 5632 5631 5630 5629 5628 5627 5627 5626 5626 5626 5625 5625 5625 5625 5625 5625 5624 5624 5625 5624 5624 5624 5626 5626 5625 5624 5624 5625 5626 5626 5627 5627 5627 5628 5629 5629 5630 5631 5632 5633 5634 5634 5635 5636 5636 5636 5637 5637 5638 5638 5638 5639 5639 5640 5640 5640 5641 5641 5641 5642 5642 5643 5643 5643 5643 5643 5643 5643 5643 5643 5643 5643 5643 5643 5643 5643 5643 5643 5642 5642 5642
5633 5631 5630 5628 5627 5627 5626 5625 5624 5623 5622 5622 5622 5622 5621 5621 5621 5621 5621 5621 5620 5620 5620 5620 5620 5619 5620 5622 5622 5621 5620 5620 5621 5622 5622 5622 5623 5623 5624 5625 5626 5627 5628 5629 5629 5630 5631 5632 5632 5633 5633 5634 5634 5635 5635 5635 5636 5636 5637 5637 5637 5637 5638 5639 5639 5639 5639 5639 5639 5639 5639 5639 5639 5639 5639 5639 5639 5639 5638 5638 5638 5638 5638 5637 5637
5628 5627 5625 5624 5622 5622 5621 5621 5620 5618 5618 5617 5617 5617 5617 5617 5616 5617 5616 5616 5616 5616 5615 5616 5616 5616 5616 5617 5618 5618 5617 5616 5617 5617 5618 5618 5618 5619 5620 5620 5621 5622 5623 5624 5625 5625 5626 5627 5628 5629 5629 5630 5630 5631 5631 5631 5632 5632 5633 5633 5633 5633 5634 5635 5635 5635 5634 5634 5634 5635 5635 5635 5635 5634 5634 5634 5634 5634 5634 5634 5633 5633 5632 5632 5632
5623 5622 5620 5619 5618 5617 5616 5616 5616 5615 5613 5613 5612 5612 5612 5612 5612 5612 5612 5611 5611 5611 5611 5611 5612 5612 5612 5613 5614 5614 5614 5613 5613 5613 5613 5613 5614 5614 5615 5616 5616 5617 5618 5619 5620 5621 5621 5622 5623 5624 5625 5625 5626 5626 5627 5627 5628 5628 5628 5629 5629 5629 5629 5630 5630 5630 5629 5629 5630 5630 5630 5630 5630 5630 5630 5629 5629 5629 5629 5629 5628 5628 5627 5627 5626
5618 5617 5615 5614 5613 5612 5611 5611 5611 5610 5609 5608 5608 5607 5607 5607 5607 5607 5607 5606 5606 5606 5607 5607 5607 5607 5607 5608 5609 5610 5610 5609 5609 5609 5609 5609 5609 5610 5610 5611 5612 5612 5613 5614 5615 5616 5617 5617 5618 5619 5620 5620 5621 5622 5622 5622 5623 5623 5624 5624 5625 5625 5624 5625 5625 5625 5625 5625 5624 5625 5625 5625 5625 5625 5625 5625 5625 5624 5624 5623 5623 5622 5622 5621 5620
5613 5612 5611 5609 5608 5607 5607 5606 5606 5605 5605 5604 5604 5603 5603 5602 5602 5602 5602 5601 5601 5601 5602 5602 5603 5602 5602 5603 5604 5605 5606 5606 5605 5605 5605 5605 5605 5605 5606 5606 5607 5607 5608 5609 5610 5611 5612 5613 5613 5614 5614 5615 5616 5617 5617 5618 5618 5619 5619 5619 5620 5620 5620 5619 5619 5620 5620 5620 5620 5619 5620 5620 5620 5620 5619 5619 5619 5619 5618 5618 5617 5616 5615 5614 5613
5608 5607 5606 5604 5603 5602 5602 5601 5601 5600 5599 5599 5599 5599 5598 5598 5598 5598 5597 5597 5597 5596 5597 5597 5598 5598 5598 5598 5599 5600 5601 5601 5601 5601 5601 5601 5601 5601 5601 5602 5602 5602 5603 5604 5605 5606 5607 5608 5608 5609 5609 5610 5611 5612 5612 5613 5613 5614 5614 5615 5615 5615 5615 5614 5614 5615 5615 5616 5615 5615 5615 5615 5615 5615 5614 5614 5613 5613 5612 5612 5611 5610 5609 5608 5607
5604 5602 5601 5600 5599 5598 5597 5596 5596 5595 5594 5594 5594 5593 5593 5593 5593 5593 5593 5593 5592 5592 5592 5592 5593 5593 5593 5593 5594 5595 5596 5597 5597 5597 5597 5597 5597 5597 5597 5597 5597 5597 5597 5598 5600 5601 5601 5602 5603 5604 5604 5605 5606 5607 5607 5608 5609 5609 5610 5610 5610 5609 5609 5609 5610 5610 5610 5610 5610 5610 5610 5610 5609 5609 5609 5608 5608 5607 5606 5605 5604 5603 5603 5602 5601
5599 5597 5596 5595 5594 5593 5592 5591 5590 5590 5590 5589 5589 5589 5589 5589 5588 5588 5588 5588 5588 5587 5587 5588 5588 5588 5589 5589 5590 5590 5590 5591 5592 5593 5593 5593 5593 5592 5592 5592 5593 5593 5593 5593 5594 5595 5596 5597 5598 5599 5599 5600 5601 5602 5603 5603 5604 5604 5604 5604 5603 5603 5603 5604 5605 5605 5605 5605 5605 5605 5605 5605 5604 5604 5603 5603 5602 5601 5600 5598 5597 5596 5595 5595 5594
5593 5592 5591 5590 5589 5588 5587 5586 5585 5585 5585 5585 5584 5584 5584 5584 5584 5583 5583 5583 5583 5583 5583 5583 5583 5584 5584 5584 5585 5585 5585 5585 5586 5587 5587 5588 5588 5589 5588 5588 5588 5589 5588 5588 5589 5590 5591 5592 5593 5594 5595 5596 5596 5596 5596 5597 5598 5598 5598 5598 5598 5599 5599 5599 5599 5599 5599 5600 5600 5600 5599 5599 5599 5598 5598 5597 5596 5594 5593 5592 5591 5589 5588 5587 5586